Time,TemperatureF,DewpointF,PressureIn,WindDirection,WindDirectionDegrees,WindSpeedMPH,WindSpeedGustMPH,Humidity,HourlyPrecipIn,Conditions,Clouds,dailyrainin,SoftwareType,DateUTC
2013-02-23 00:08:00,-13.5,-17.0,29.73,SSW,200,0.0,0.0,82,0.00,,,0.00,weatherlink.com 1.10,2013-02-23 09:08:00,
2013-02-23 00:23:00,-13.5,-17.0,29.72,SSW,201,0.0,0.0,82,0.00,,,0.00,weatherlink.com 1.10,2013-02-23 09:23:00,
2013-02-23 00:38:00,-13.4,-17.0,29.71,SSW,201,0.0,0.0,83,0.00,,,0.00,weatherlink.com 1.10,2013-02-23 09:38:00,
2013-02-23 00:54:00,-13.2,-17.0,29.71,SSW,201,0.0,0.0,83,0.00,,,0.00,weatherlink.com 1.10,2013-02-23 09:54:00,
2013-02-23 01:09:00,-13.2,-17.0,29.71,SSW,201,0.0,0.0,83,0.00,,,0.00,weatherlink.com 1.10,2013-02-23 10:09:00,
2013-02-23 01:24:00,-13.0,-17.0,29.70,SSW,201,0.0,0.0,83,0.00,,,0.00,weatherlink.com 1.10,2013-02-23 10:24:00,
2013-02-23 01:39:00,-13.3,-17.0,29.70,SSW,202,0.0,0.0,82,0.00,,,0.00,weatherlink.com 1.10,2013-02-23 10:39:00,
2013-02-23 01:54:00,-14.1,-18.0,29.69,SSW,201,0.0,0.0,82,0.00,,,0.00,weatherlink.com 1.10,2013-02-23 10:54:00,
2013-02-23 02:09:00,-14.1,-18.0,29.69,SSW,201,0.0,0.0,83,0.00,,,0.00,weatherlink.com 1.10,2013-02-23 11:09:00,
2013-02-23 02:24:00,-13.9,-18.0,29.68,SSW,201,0.0,0.0,82,0.00,,,0.00,weatherlink.com 1.10,2013-02-23 11:24:00,
2013-02-23 02:39:00,-13.6,-17.0,29.68,SSW,201,0.0,0.0,83,0.00,,,0.00,weatherlink.com 1.10,2013-02-23 11:39:00,
2013-02-23 02:54:00,-13.8,-18.0,29.67,SSW,201,0.0,0.0,82,0.00,,,0.00,weatherlink.com 1.10,2013-02-23 11:54:00,
2013-02-23 03:09:00,-13.3,-17.0,29.66,SSW,201,0.0,0.0,82,0.00,,,0.00,weatherlink.com 1.10,2013-02-23 12:09:00,
2013-02-23 03:24:00,-13.1,-17.0,29.66,SSW,201,0.0,0.0,82,0.00,,,0.00,weatherlink.com 1.10,2013-02-23 12:24:00,
2013-02-23 03:39:00,-13.2,-17.0,29.66,SSW,201,0.0,0.0,82,0.00,,,0.00,weatherlink.com 1.10,2013-02-23 12:39:00,
2013-02-23 03:54:00,-13.4,-18.0,29.66,SSW,201,0.0,0.0,81,0.00,,,0.00,weatherlink.com 1.10,2013-02-23 12:54:00,
2013-02-23 04:09:00,-13.3,-18.0,29.66,SSW,201,0.0,0.0,81,0.00,,,0.00,weatherlink.com 1.10,2013-02-23 13:09:00,
2013-02-23 04:25:00,-13.3,-17.0,29.65,SSW,201,0.0,0.0,82,0.00,,,0.00,weatherlink.com 1.10,2013-02-23 13:25:00,
2013-02-23 04:40:00,-12.6,-17.0,29.64,SSW,201,0.0,0.0,82,0.00,,,0.00,weatherlink.com 1.10,2013-02-23 13:40:00,
2013-02-23 04:55:00,-12.7,-17.0,29.63,SSW,201,0.0,0.0,82,0.00,,,0.00,weatherlink.com 1.10,2013-02-23 13:55:00,
2013-02-23 05:10:00,-12.9,-17.0,29.62,SSW,201,0.0,0.0,82,0.00,,,0.00,weatherlink.com 1.10,2013-02-23 14:10:00,
2013-02-23 05:25:00,-13.3,-17.0,29.62,SSW,201,0.0,0.0,82,0.00,,,0.00,weatherlink.com 1.10,2013-02-23 14:25:00,
2013-02-23 05:40:00,-13.1,-17.0,29.61,SSW,201,0.0,0.0,82,0.00,,,0.00,weatherlink.com 1.10,2013-02-23 14:40:00,
2013-02-23 05:55:00,-13.1,-17.0,29.60,SSW,201,0.0,0.0,82,0.00,,,0.00,weatherlink.com 1.10,2013-02-23 14:55:00,
2013-02-23 06:10:00,-13.0,-17.0,29.60,SSW,201,0.0,0.0,82,0.00,,,0.00,weatherlink.com 1.10,2013-02-23 15:10:00,
2013-02-23 06:25:00,-12.7,-17.0,29.59,SSW,201,0.0,0.0,82,0.00,,,0.00,weatherlink.com 1.10,2013-02-23 15:25:00,
2013-02-23 06:40:00,-12.6,-17.0,29.58,SSW,201,0.0,0.0,82,0.00,,,0.00,weatherlink.com 1.10,2013-02-23 15:40:00,
2013-02-23 07:10:00,-13.0,-17.0,29.58,SSW,201,0.0,0.0,82,0.00,,,0.00,weatherlink.com 1.10,2013-02-23 16:10:00,
2013-02-23 07:25:00,-12.5,-16.0,29.57,SSW,201,0.0,0.0,83,0.00,,,0.00,weatherlink.com 1.10,2013-02-23 16:25:00,
2013-02-23 07:41:00,-12.3,-16.0,29.58,SSW,201,0.0,0.0,83,0.00,,,0.00,weatherlink.com 1.10,2013-02-23 16:41:00,
2013-02-23 07:56:00,-11.7,-15.0,29.58,SSW,201,0.0,0.0,83,0.00,,,0.00,weatherlink.com 1.10,2013-02-23 16:56:00,
2013-02-23 08:11:00,-12.0,-16.0,29.58,SSW,201,0.0,0.0,82,0.00,,,0.00,weatherlink.com 1.10,2013-02-23 17:11:00,
2013-02-23 08:26:00,-12.2,-16.0,29.57,SSW,201,0.0,0.0,82,0.00,,,0.00,weatherlink.com 1.10,2013-02-23 17:26:00,
2013-02-23 08:41:00,-12.3,-16.0,29.57,SSW,201,0.0,0.0,82,0.00,,,0.00,weatherlink.com 1.10,2013-02-23 17:41:00,
2013-02-23 08:56:00,-11.2,-15.0,29.57,SSW,201,0.0,0.0,83,0.00,,,0.00,weatherlink.com 1.10,2013-02-23 17:56:00,
2013-02-23 09:11:00,-11.0,-15.0,29.57,SSW,201,0.0,0.0,82,0.00,,,0.00,weatherlink.com 1.10,2013-02-23 18:11:00,
2013-02-23 09:26:00,-10.4,-14.0,29.56,SSW,201,0.0,0.0,82,0.00,,,0.00,weatherlink.com 1.10,2013-02-23 18:26:00,
2013-02-23 09:41:00,-9.9,-14.0,29.56,SSW,201,0.0,0.0,81,0.00,,,0.00,weatherlink.com 1.10,2013-02-23 18:41:00,
2013-02-23 09:56:00,-9.1,-13.0,29.56,SSW,201,0.0,0.0,81,0.00,,,0.00,weatherlink.com 1.10,2013-02-23 18:56:00,
2013-02-23 10:11:00,-8.4,-13.0,29.56,SSW,201,0.0,0.0,80,0.00,,,0.00,weatherlink.com 1.10,2013-02-23 19:11:00,
2013-02-23 10:26:00,-7.7,-12.0,29.56,SSW,201,0.0,0.0,80,0.00,,,0.00,weatherlink.com 1.10,2013-02-23 19:26:00,
2013-02-23 10:41:00,-7.1,-12.0,29.55,SSW,201,0.0,0.0,79,0.00,,,0.00,weatherlink.com 1.10,2013-02-23 19:41:00,
2013-02-23 10:56:00,-5.8,-11.0,29.55,SSW,200,0.0,0.0,78,0.00,,,0.00,weatherlink.com 1.10,2013-02-23 19:56:00,
2013-02-23 11:12:00,-4.6,-10.0,29.55,SSW,201,0.0,0.0,76,0.00,,,0.00,weatherlink.com 1.10,2013-02-23 20:12:00,
2013-02-23 11:27:00,-3.7,-10.0,29.55,SSW,200,0.0,0.0,76,0.00,,,0.00,weatherlink.com 1.10,2013-02-23 20:27:00,
2013-02-23 11:42:00,-2.9,-9.0,29.55,SSW,200,0.0,0.0,74,0.00,,,0.00,weatherlink.com 1.10,2013-02-23 20:42:00,
2013-02-23 11:57:00,-2.6,-9.0,29.55,SSW,200,0.0,0.0,74,0.00,,,0.00,weatherlink.com 1.10,2013-02-23 20:57:00,
2013-02-23 12:12:00,-1.9,-9.0,29.55,SSW,200,0.0,0.0,73,0.00,,,0.00,weatherlink.com 1.10,2013-02-23 21:12:00,
2013-02-23 12:27:00,-1.6,-9.0,29.55,SSW,200,0.0,0.0,72,0.00,,,0.00,weatherlink.com 1.10,2013-02-23 21:27:00,
2013-02-23 12:42:00,-1.1,-8.0,29.55,SSW,200,0.0,0.0,73,0.00,,,0.00,weatherlink.com 1.10,2013-02-23 21:42:00,
2013-02-23 12:57:00,-0.4,-8.0,29.55,SSW,200,0.0,0.0,70,0.00,,,0.00,weatherlink.com 1.10,2013-02-23 21:57:00,
2013-02-23 13:12:00,0.6,-7.0,29.54,SSW,200,0.0,0.0,70,0.00,,,0.00,weatherlink.com 1.10,2013-02-23 22:12:00,
2013-02-23 13:27:00,1.5,-7.0,29.54,SSW,200,0.0,0.0,69,0.00,,,0.00,weatherlink.com 1.10,2013-02-23 22:27:00,
2013-02-23 13:42:00,2.4,-6.0,29.53,SSW,200,0.0,0.0,68,0.00,,,0.00,weatherlink.com 1.10,2013-02-23 22:42:00,
2013-02-23 13:57:00,2.1,-6.0,29.53,SSW,200,0.0,0.0,69,0.00,,,0.00,weatherlink.com 1.10,2013-02-23 22:57:00,
2013-02-23 14:12:00,2.5,-5.0,29.53,SSW,200,0.0,0.0,70,0.00,,,0.00,weatherlink.com 1.10,2013-02-23 23:12:00,
2013-02-23 14:27:00,3.4,-5.0,29.52,SSW,200,0.0,0.0,69,0.00,,,0.00,weatherlink.com 1.10,2013-02-23 23:27:00,
2013-02-23 14:43:00,3.9,-4.0,29.51,SSW,200,0.0,0.0,69,0.00,,,0.00,weatherlink.com 1.10,2013-02-23 23:43:00,
2013-02-23 14:58:00,4.4,-4.0,29.51,SSW,200,0.0,0.0,68,0.00,,,0.00,weatherlink.com 1.10,2013-02-23 23:58:00,
2013-02-23 15:13:00,4.7,-3.0,29.51,SSW,200,0.0,0.0,71,0.00,,,0.00,weatherlink.com 1.10,2013-02-24 00:13:00,
2013-02-23 15:28:00,5.0,-3.0,29.51,SSW,200,0.0,0.0,69,0.00,,,0.00,weatherlink.com 1.10,2013-02-24 00:28:00,
2013-02-23 15:43:00,5.0,-4.0,29.50,SSW,200,0.0,0.0,67,0.00,,,0.00,weatherlink.com 1.10,2013-02-24 00:43:00,
2013-02-23 15:58:00,5.0,-3.0,29.50,SSW,200,0.0,0.0,70,0.00,,,0.00,weatherlink.com 1.10,2013-02-24 00:58:00,
2013-02-23 16:13:00,4.8,-2.0,29.50,SSW,200,0.0,0.0,72,0.00,,,0.00,weatherlink.com 1.10,2013-02-24 01:13:00,
2013-02-23 16:43:00,4.6,-2.0,29.50,SSW,200,0.0,0.0,73,0.00,,,0.00,weatherlink.com 1.10,2013-02-24 01:43:00,
2013-02-23 16:58:00,4.2,-2.0,29.50,SSW,200,0.0,0.0,74,0.00,,,0.00,weatherlink.com 1.10,2013-02-24 01:58:00,
2013-02-23 17:13:00,4.1,-2.0,29.49,SSW,200,0.0,0.0,75,0.00,,,0.00,weatherlink.com 1.10,2013-02-24 02:13:00,
2013-02-23 17:28:00,3.9,-3.0,29.49,SSW,200,0.0,0.0,74,0.00,,,0.00,weatherlink.com 1.10,2013-02-24 02:28:00,
2013-02-23 17:43:00,3.8,-3.0,29.49,SSW,200,0.0,0.0,74,0.00,,,0.00,weatherlink.com 1.10,2013-02-24 02:43:00,
2013-02-23 17:58:00,3.5,-3.0,29.49,SSW,200,0.0,0.0,75,0.00,,,0.00,weatherlink.com 1.10,2013-02-24 02:58:00,
2013-02-23 18:14:00,3.1,-3.0,29.49,SSW,200,0.0,0.0,77,0.00,,,0.00,weatherlink.com 1.10,2013-02-24 03:14:00,
2013-02-23 18:29:00,2.8,-3.0,29.48,SSW,200,0.0,0.0,78,0.00,,,0.00,weatherlink.com 1.10,2013-02-24 03:29:00,
2013-02-23 18:44:00,2.8,-3.0,29.48,SSW,200,0.0,0.0,77,0.00,,,0.00,weatherlink.com 1.10,2013-02-24 03:44:00,
2013-02-23 18:59:00,2.5,-3.0,29.48,SSW,200,0.0,0.0,77,0.00,,,0.00,weatherlink.com 1.10,2013-02-24 03:59:00,
2013-02-23 19:14:00,2.2,-4.0,29.49,SSW,200,0.0,0.0,76,0.00,,,0.00,weatherlink.com 1.10,2013-02-24 04:14:00,
2013-02-23 19:29:00,2.2,-4.0,29.48,SSW,200,0.0,0.0,76,0.00,,,0.00,weatherlink.com 1.10,2013-02-24 04:29:00,
2013-02-23 19:44:00,2.2,-4.0,29.48,SSW,200,0.0,0.0,74,0.00,,,0.00,weatherlink.com 1.10,2013-02-24 04:44:00,
2013-02-23 19:59:00,2.2,-4.0,29.48,SSW,200,0.0,0.0,75,0.00,,,0.00,weatherlink.com 1.10,2013-02-24 04:59:00,
2013-02-23 20:14:00,1.9,-4.0,29.49,SSW,200,0.0,0.0,75,0.00,,,0.00,weatherlink.com 1.10,2013-02-24 05:14:00,
2013-02-23 20:29:00,1.6,-4.0,29.49,SSW,200,0.0,0.0,77,0.00,,,0.00,weatherlink.com 1.10,2013-02-24 05:29:00,
2013-02-23 20:44:00,1.3,-4.0,29.49,SSW,200,0.0,0.0,77,0.00,,,0.00,weatherlink.com 1.10,2013-02-24 05:44:00,
2013-02-23 20:59:00,1.1,-4.0,29.49,SSW,200,0.0,0.0,79,0.00,,,0.00,weatherlink.com 1.10,2013-02-24 05:59:00,
2013-02-23 21:14:00,0.9,-4.0,29.49,SSW,200,0.0,0.0,79,0.00,,,0.00,weatherlink.com 1.10,2013-02-24 06:14:00,
2013-02-23 21:29:00,0.6,-5.0,29.49,SSW,200,0.0,0.0,79,0.00,,,0.00,weatherlink.com 1.10,2013-02-24 06:29:00,
2013-02-23 21:44:00,0.9,-4.0,29.49,SSW,200,0.0,0.0,78,0.00,,,0.00,weatherlink.com 1.10,2013-02-24 06:44:00,
2013-02-23 22:00:00,0.7,-4.0,29.49,SSW,200,0.0,0.0,79,0.00,,,0.00,weatherlink.com 1.10,2013-02-24 07:00:00,
2013-02-23 22:15:00,0.2,-5.0,29.50,SSW,200,0.0,0.0,79,0.00,,,0.00,weatherlink.com 1.10,2013-02-24 07:15:00,
2013-02-23 22:30:00,-0.2,-5.0,29.49,SSW,200,0.0,0.0,80,0.00,,,0.00,weatherlink.com 1.10,2013-02-24 07:30:00,
2013-02-23 22:45:00,-0.7,-5.0,29.50,SSW,200,0.0,0.0,81,0.00,,,0.00,weatherlink.com 1.10,2013-02-24 07:45:00,
2013-02-23 23:00:00,-0.9,-5.0,29.50,SSW,200,0.0,0.0,81,0.00,,,0.00,weatherlink.com 1.10,2013-02-24 08:00:00,
2013-02-23 23:15:00,-0.7,-5.0,29.51,SSW,200,0.0,0.0,81,0.00,,,0.00,weatherlink.com 1.10,2013-02-24 08:15:00,
2013-02-23 23:30:00,-0.6,-5.0,29.51,SSW,200,0.0,0.0,80,0.00,,,0.00,weatherlink.com 1.10,2013-02-24 08:30:00,
2013-02-23 23:45:00,-0.8,-6.0,29.52,SSW,200,0.0,0.0,80,0.00,,,0.00,weatherlink.com 1.10,2013-02-24 08:45:00,